ITY17G EDDH-LIRF

Flight info

Callsign ITY17G
Flight time 2h 8m
Altitude 41000
Route AMLUH2G/33 AMLUH M852 DENIX DCT ZUCKA DCT MOOCE DCT BERAS M736 LIZUM N503 LIKDA DCT BAKOR DCT VESAL DCT VIC DCT KOPER DCT SUKOM DCT GAVRA DCT RITEB
Aircraft A332/H-SDE3GHIJ2J3J5M1RVWXY/LB2D1

Departure

Time 2026-05-05 18:09
Airport Hamburg Helmut Schmidt Airport (EDDH)

Arrival

Time 2026-05-05 20:17
Airport Rome–Fiumicino Leonardo da Vinci International Airport (LIRF)
Time Latitude Longitude Altitude Speed Heading
2026-05-05 17:59 53.62931 10.00277 54 ft 0 kts 121°
2026-05-05 18:02 53.62933 10.00270 47 ft 2 kts 121°
2026-05-05 18:02 53.62942 10.00246 47 ft 2 kts 123°
2026-05-05 18:02 53.62951 10.00223 47 ft 2 kts 124°
2026-05-05 18:02 53.62960 10.00201 47 ft 2 kts 127°
2026-05-05 18:03 53.62971 10.00179 47 ft 2 kts 132°
2026-05-05 18:03 53.62982 10.00160 47 ft 2 kts 146°
2026-05-05 18:03 53.62997 10.00149 47 ft 2 kts 188°
2026-05-05 18:03 53.63008 10.00155 47 ft 1 kts 213°
2026-05-05 18:04 53.63009 10.00156 47 ft 1 kts 213°
2026-05-05 18:04 53.63008 10.00156 47 ft 0 kts 213°
2026-05-05 18:05 53.63008 10.00155 47 ft 1 kts 213°
2026-05-05 18:05 53.63000 10.00146 47 ft 2 kts 213°
2026-05-05 18:06 53.62983 10.00128 47 ft 4 kts 213°
2026-05-05 18:06 53.62975 10.00120 47 ft 4 kts 213°
2026-05-05 18:06 53.62923 10.00066 48 ft 6 kts 209°
2026-05-05 18:06 53.62883 10.00035 52 ft 6 kts 208°
2026-05-05 18:07 53.62862 10.00002 50 ft 3 kts 231°
2026-05-05 18:07 53.62841 9.99944 46 ft 10 kts 241°
2026-05-05 18:07 53.62822 9.99813 46 ft 11 kts 300°
2026-05-05 18:07 53.62853 9.99761 49 ft 0 kts 329°
2026-05-05 18:08 53.62854 9.99760 49 ft 0 kts 329°
2026-05-05 18:08 53.62952 9.99665 48 ft 47 kts 331°
2026-05-05 18:08 53.63230 9.99428 47 ft 87 kts 333°
2026-05-05 18:08 53.63832 9.98912 50 ft 134 kts 333°
2026-05-05 18:09 53.64754 9.98135 370 ft 154 kts 334°
2026-05-05 18:09 53.65401 9.97536 756 ft 159 kts 335°
2026-05-05 18:09 53.66419 9.96702 1277 ft 171 kts 340°
2026-05-05 18:09 53.67542 9.95949 1843 ft 179 kts 344°
2026-05-05 18:10 53.68752 9.95347 2296 ft 187 kts 349°
2026-05-05 18:10 53.70093 9.95035 2547 ft 206 kts
2026-05-05 18:10 53.71604 9.95244 2770 ft 229 kts 17°
2026-05-05 18:10 53.72803 9.97001 3160 ft 243 kts 66°
2026-05-05 18:11 53.73298 9.99780 3813 ft 250 kts 72°
2026-05-05 18:11 53.73751 10.02600 4498 ft 255 kts 79°
2026-05-05 18:11 53.73500 10.05579 5166 ft 264 kts 120°
2026-05-05 18:11 53.72377 10.08083 5800 ft 271 kts 126°
2026-05-05 18:12 53.71275 10.10682 6470 ft 278 kts 133°
2026-05-05 18:12 53.69669 10.12448 7186 ft 278 kts 161°
2026-05-05 18:12 53.67791 10.13286 7958 ft 279 kts 170°
2026-05-05 18:12 53.65872 10.13855 8734 ft 280 kts 173°
2026-05-05 18:13 53.63933 10.14368 9520 ft 283 kts 173°
2026-05-05 18:13 53.61980 10.14925 10181 ft 289 kts 172°
2026-05-05 18:13 53.59972 10.15553 10480 ft 306 kts 172°
2026-05-05 18:13 53.57820 10.16248 10741 ft 323 kts 172°
2026-05-05 18:14 53.55565 10.16972 10976 ft 339 kts 171°
2026-05-05 18:14 53.53197 10.17722 11336 ft 348 kts 171°
2026-05-05 18:14 53.50801 10.18493 11795 ft 353 kts 171°
2026-05-05 18:14 53.48374 10.19315 12300 ft 357 kts 170°
2026-05-05 18:15 53.45930 10.20187 12810 ft 360 kts 169°
2026-05-05 18:15 53.43502 10.21091 13295 ft 363 kts 169°
2026-05-05 18:15 53.41060 10.22028 13780 ft 366 kts 168°
2026-05-05 18:15 53.38603 10.22982 14195 ft 369 kts 168°
2026-05-05 18:16 53.36095 10.23961 14630 ft 371 kts 168°
2026-05-05 18:16 53.33571 10.24945 15051 ft 373 kts 168°
2026-05-05 18:16 53.31032 10.25934 15507 ft 375 kts 168°
2026-05-05 18:16 53.29345 10.26590 15775 ft 376 kts 168°
2026-05-05 18:17 53.27749 10.27208 16068 ft 376 kts 168°
2026-05-05 18:17 53.25227 10.28184 16515 ft 377 kts 168°
2026-05-05 18:17 53.22657 10.29181 16904 ft 380 kts 168°
2026-05-05 18:17 53.20112 10.30166 17324 ft 381 kts 168°
2026-05-05 18:18 53.17528 10.31163 17738 ft 382 kts 168°
2026-05-05 18:18 53.14918 10.32170 18117 ft 385 kts 168°
2026-05-05 18:18 53.12293 10.33182 18426 ft 387 kts 168°
2026-05-05 18:18 53.09658 10.34193 18728 ft 390 kts 168°
2026-05-05 18:19 53.07006 10.35208 19063 ft 391 kts 168°
2026-05-05 18:19 53.04356 10.36220 19365 ft 393 kts 168°
2026-05-05 18:19 53.01705 10.37232 19669 ft 395 kts 168°
2026-05-05 18:19 52.99027 10.38255 19983 ft 396 kts 168°
2026-05-05 18:20 52.98114 10.38603 20091 ft 396 kts 169°
2026-05-05 18:20 52.95566 10.39575 20370 ft 398 kts 169°
2026-05-05 18:20 52.92858 10.40607 20662 ft 399 kts 169°
2026-05-05 18:20 52.90147 10.41640 20945 ft 401 kts 169°
2026-05-05 18:21 52.87448 10.42667 21230 ft 402 kts 169°
2026-05-05 18:21 52.84713 10.43706 21511 ft 403 kts 169°
2026-05-05 18:21 52.81969 10.44747 21776 ft 405 kts 169°
2026-05-05 18:21 52.79215 10.45790 22039 ft 406 kts 169°
2026-05-05 18:22 52.76451 10.46836 22319 ft 407 kts 169°
2026-05-05 18:22 52.73689 10.47879 22602 ft 407 kts 169°
2026-05-05 18:22 52.70920 10.48926 22841 ft 409 kts 169°
2026-05-05 18:22 52.68177 10.49960 23075 ft 410 kts 170°
2026-05-05 18:23 52.65389 10.51010 23311 ft 411 kts 170°
2026-05-05 18:23 52.62595 10.52060 23518 ft 413 kts 170°
2026-05-05 18:23 52.59776 10.53117 23712 ft 414 kts 170°
2026-05-05 18:23 52.56964 10.54169 23888 ft 415 kts 170°
2026-05-05 18:24 52.54146 10.55221 24109 ft 414 kts 170°
2026-05-05 18:24 52.51332 10.56269 24349 ft 414 kts 170°
2026-05-05 18:24 52.48528 10.57316 24569 ft 414 kts 170°
2026-05-05 18:24 52.45711 10.58369 24731 ft 415 kts 170°
2026-05-05 18:25 52.42930 10.59408 24891 ft 416 kts 170°
2026-05-05 18:25 52.41017 10.60120 25006 ft 417 kts 170°
2026-05-05 18:25 52.37263 10.61514 25229 ft 418 kts 170°
2026-05-05 18:25 52.34420 10.62567 25393 ft 419 kts 170°
2026-05-05 18:26 52.31575 10.63620 25540 ft 420 kts 170°
2026-05-05 18:26 52.28714 10.64678 25731 ft 420 kts 170°
2026-05-05 18:26 52.25907 10.65714 25888 ft 421 kts 170°
2026-05-05 18:26 52.23055 10.66766 26050 ft 421 kts 170°
2026-05-05 18:27 52.20180 10.67825 26200 ft 422 kts 170°
2026-05-05 18:27 52.17303 10.68885 26362 ft 423 kts 170°
2026-05-05 18:27 52.14430 10.69942 26505 ft 424 kts 170°
2026-05-05 18:27 52.11543 10.71002 26642 ft 424 kts 170°
2026-05-05 18:28 52.07712 10.72406 26825 ft 425 kts 170°
2026-05-05 18:28 52.04968 10.73409 26958 ft 426 kts 170°
2026-05-05 18:28 52.02079 10.74465 27089 ft 426 kts 170°
2026-05-05 18:29 51.99183 10.75521 27253 ft 426 kts 170°
2026-05-05 18:29 51.96286 10.76577 27394 ft 426 kts 170°
2026-05-05 18:29 51.93415 10.77623 27519 ft 427 kts 170°
2026-05-05 18:29 51.90511 10.78680 27615 ft 428 kts 170°
2026-05-05 18:30 51.87601 10.79737 27733 ft 428 kts 170°
2026-05-05 18:30 51.84688 10.80793 27857 ft 429 kts 170°
2026-05-05 18:30 51.81776 10.81847 27961 ft 429 kts 170°
2026-05-05 18:30 51.78859 10.82902 28075 ft 430 kts 170°
2026-05-05 18:31 51.75952 10.83950 28224 ft 429 kts 170°
2026-05-05 18:31 51.73145 10.84862 28431 ft 427 kts 172°
2026-05-05 18:31 51.67349 10.86898 28575 ft 430 kts 169°
2026-05-05 18:32 51.61493 10.88969 28747 ft 431 kts 171°
2026-05-05 18:32 51.58553 10.89937 28882 ft 431 kts 171°
2026-05-05 18:32 51.55615 10.90884 28966 ft 431 kts 171°
2026-05-05 18:33 51.49697 10.92762 29213 ft 431 kts 171°
2026-05-05 18:33 51.45972 10.93947 29325 ft 431 kts 171°
2026-05-05 18:34 51.40075 10.95830 29469 ft 432 kts 171°
2026-05-05 18:34 51.34165 10.97716 29615 ft 433 kts 171°
2026-05-05 18:35 51.28233 10.99603 29766 ft 434 kts 170°
2026-05-05 18:35 51.22343 11.01474 29872 ft 435 kts 170°
2026-05-05 18:36 51.16362 11.03370 29900 ft 438 kts 170°
2026-05-05 18:36 51.12511 11.04583 29995 ft 438 kts 170°
2026-05-05 18:37 51.06552 11.06460 30112 ft 438 kts 170°
2026-05-05 18:37 51.02734 11.07660 30179 ft 438 kts 169°
2026-05-05 18:38 50.96742 11.09543 30280 ft 439 kts 169°
2026-05-05 18:38 50.90781 11.11411 30366 ft 440 kts 169°
2026-05-05 18:39 50.86912 11.12619 30436 ft 440 kts 169°
2026-05-05 18:39 50.80916 11.14489 30573 ft 439 kts 169°
2026-05-05 18:40 50.77927 11.15426 30810 ft 435 kts 168°
2026-05-05 18:40 50.74976 11.16374 31065 ft 424 kts 168°
2026-05-05 18:40 50.72158 11.17319 31431 ft 406 kts 167°
2026-05-05 18:40 50.69423 11.18120 31687 ft 404 kts 173°
2026-05-05 18:41 50.66667 11.18776 32019 ft 398 kts 168°
2026-05-05 18:41 50.64041 11.19693 32399 ft 392 kts 166°
2026-05-05 18:41 50.61407 11.20730 32735 ft 387 kts 166°
2026-05-05 18:41 50.58792 11.21765 32804 ft 389 kts 166°
2026-05-05 18:42 50.53472 11.23678 32793 ft 396 kts 168°
2026-05-05 18:42 50.48013 11.25402 32798 ft 402 kts 169°
2026-05-05 18:43 50.44542 11.26433 32795 ft 406 kts 170°
2026-05-05 18:43 50.38949 11.28068 32797 ft 412 kts 170°
2026-05-05 18:44 50.33275 11.29731 32797 ft 417 kts 170°
2026-05-05 18:44 50.27538 11.31430 32791 ft 422 kts 169°
2026-05-05 18:45 50.21742 11.33155 32828 ft 426 kts 169°
2026-05-05 18:45 50.15899 11.34893 32880 ft 428 kts 169°
2026-05-05 18:46 50.10020 11.36645 32950 ft 430 kts 169°
2026-05-05 18:46 50.04163 11.38386 33061 ft 431 kts 169°
2026-05-05 18:47 49.98249 11.40140 33127 ft 433 kts 169°
2026-05-05 18:47 49.94435 11.41273 33170 ft 434 kts 169°
2026-05-05 18:48 49.91518 11.42141 33301 ft 432 kts 169°
2026-05-05 18:48 49.88560 11.43030 33387 ft 431 kts 169°
2026-05-05 18:48 49.85653 11.43918 33522 ft 429 kts 169°
2026-05-05 18:48 49.82725 11.44817 33687 ft 428 kts 169°
2026-05-05 18:49 49.79811 11.45707 33805 ft 426 kts 169°
2026-05-05 18:49 49.76908 11.46592 33946 ft 424 kts 170°
2026-05-05 18:49 49.74025 11.47475 34146 ft 420 kts 170°
2026-05-05 18:49 49.71206 11.48346 34385 ft 415 kts 169°
2026-05-05 18:50 49.68383 11.49231 34633 ft 410 kts 169°
2026-05-05 18:50 49.67446 11.49527 34711 ft 409 kts 169°
2026-05-05 18:50 49.64849 11.50350 34929 ft 405 kts 169°
2026-05-05 18:50 49.62103 11.51224 35172 ft 400 kts 169°
2026-05-05 18:51 49.59388 11.52089 35428 ft 395 kts 170°
2026-05-05 18:51 49.56703 11.52928 35691 ft 391 kts 170°
2026-05-05 18:51 49.54076 11.53578 35925 ft 385 kts 175°
2026-05-05 18:51 49.51397 11.53954 36165 ft 379 kts 178°
2026-05-05 18:52 49.48074 11.54289 36503 ft 372 kts 178°
2026-05-05 18:52 49.45503 11.54531 36767 ft 367 kts 178°
2026-05-05 18:52 49.43813 11.54699 36802 ft 367 kts 178°
2026-05-05 18:53 49.39682 11.55128 36818 ft 369 kts 178°
2026-05-05 18:53 49.35417 11.55572 36818 ft 372 kts 178°
2026-05-05 18:54 49.31247 11.55993 36819 ft 374 kts 179°
2026-05-05 18:54 49.26920 11.56426 36823 ft 376 kts 179°
2026-05-05 18:55 49.22593 11.56859 36822 ft 378 kts 178°
2026-05-05 18:55 49.18337 11.57286 36811 ft 380 kts 178°
2026-05-05 18:56 49.13065 11.57814 36809 ft 382 kts 179°
2026-05-05 18:56 49.07738 11.58347 36810 ft 384 kts 179°
2026-05-05 18:57 49.03984 11.58723 36812 ft 386 kts 179°
2026-05-05 18:57 48.98961 11.59225 36816 ft 388 kts 179°
2026-05-05 18:58 48.93575 11.59764 36810 ft 390 kts 179°
2026-05-05 18:58 48.90075 11.60115 36811 ft 392 kts 179°
2026-05-05 18:59 48.84614 11.60660 36803 ft 394 kts 179°
2026-05-05 18:59 48.80050 11.61115 36800 ft 395 kts 179°
2026-05-05 19:00 48.75653 11.61553 36799 ft 397 kts 179°
2026-05-05 19:00 48.70124 11.62104 36796 ft 398 kts 179°
2026-05-05 19:01 48.64630 11.62657 36808 ft 400 kts 179°
2026-05-05 19:01 48.59053 11.63217 36812 ft 402 kts 179°
2026-05-05 19:02 48.55446 11.63577 36810 ft 403 kts 179°
2026-05-05 19:02 48.49863 11.64130 36829 ft 405 kts 179°
2026-05-05 19:03 48.44248 11.64690 36827 ft 406 kts 179°
2026-05-05 19:03 48.40615 11.65055 36832 ft 407 kts 179°
2026-05-05 19:04 48.34985 11.65616 36826 ft 408 kts 179°
2026-05-05 19:04 48.29299 11.66179 36826 ft 409 kts 180°
2026-05-05 19:05 48.23592 11.66744 36828 ft 410 kts 180°
2026-05-05 19:05 48.17919 11.67306 36832 ft 412 kts 180°
2026-05-05 19:06 48.12236 11.67866 36831 ft 413 kts 180°
2026-05-05 19:06 48.08354 11.68247 36829 ft 413 kts 180°
2026-05-05 19:07 48.02908 11.68780 36832 ft 414 kts 180°
2026-05-05 19:07 47.97158 11.69340 36828 ft 415 kts 180°
2026-05-05 19:08 47.91377 11.69904 36831 ft 416 kts 180°
2026-05-05 19:08 47.87509 11.70282 36838 ft 417 kts 180°
2026-05-05 19:09 47.81891 11.70830 36835 ft 417 kts 180°
2026-05-05 19:09 47.76255 11.71372 36838 ft 418 kts 180°
2026-05-05 19:10 47.70500 11.71927 36836 ft 419 kts 180°
2026-05-05 19:10 47.64653 11.72493 36835 ft 419 kts 180°
2026-05-05 19:11 47.58870 11.73060 36834 ft 419 kts 180°
2026-05-05 19:11 47.53040 11.73634 36834 ft 420 kts 180°
2026-05-05 19:12 47.47206 11.74204 36839 ft 421 kts 180°
2026-05-05 19:12 47.41388 11.74767 36842 ft 422 kts 180°
2026-05-05 19:13 47.35518 11.75366 36852 ft 423 kts 178°
2026-05-05 19:13 47.29663 11.75430 36855 ft 420 kts 187°
2026-05-05 19:14 47.23873 11.74830 36863 ft 420 kts 187°
2026-05-05 19:14 47.20039 11.74468 36860 ft 421 kts 187°
2026-05-05 19:15 47.14241 11.74058 36865 ft 422 kts 186°
2026-05-05 19:15 47.08358 11.73734 36892 ft 423 kts 185°
2026-05-05 19:16 47.04611 11.73541 36898 ft 423 kts 185°
2026-05-05 19:16 46.98734 11.73242 36896 ft 424 kts 185°
2026-05-05 19:17 46.92838 11.72921 36920 ft 424 kts 186°
2026-05-05 19:17 46.86919 11.72594 36919 ft 426 kts 186°
2026-05-05 19:18 46.81016 11.72260 36931 ft 427 kts 186°
2026-05-05 19:18 46.75062 11.71930 36941 ft 427 kts 186°
2026-05-05 19:19 46.69114 11.71609 36949 ft 427 kts 186°
2026-05-05 19:19 46.63165 11.71287 36949 ft 428 kts 186°
2026-05-05 19:20 46.57241 11.70959 36963 ft 428 kts 186°
2026-05-05 19:20 46.51311 11.70619 36963 ft 429 kts 186°
2026-05-05 19:21 46.45341 11.70276 36970 ft 429 kts 186°
2026-05-05 19:21 46.41549 11.70062 36968 ft 429 kts 186°
2026-05-05 19:22 46.35574 11.69729 36965 ft 429 kts 186°
2026-05-05 19:22 46.29613 11.69419 36980 ft 429 kts 186°
2026-05-05 19:23 46.23714 11.69111 36976 ft 428 kts 186°
2026-05-05 19:23 46.19737 11.68903 36988 ft 427 kts 186°
2026-05-05 19:24 46.13918 11.68596 36986 ft 428 kts 186°
2026-05-05 19:24 46.07970 11.68285 36993 ft 428 kts 186°
2026-05-05 19:25 46.02056 11.67969 37004 ft 427 kts 187°
2026-05-05 19:25 45.96096 11.67657 37002 ft 429 kts 187°
2026-05-05 19:26 45.90136 11.67335 36998 ft 430 kts 187°
2026-05-05 19:26 45.84140 11.67016 37005 ft 431 kts 187°
2026-05-05 19:27 45.80300 11.66812 36995 ft 432 kts 187°
2026-05-05 19:27 45.74254 11.66489 36998 ft 432 kts 187°
2026-05-05 19:28 45.68272 11.66174 36994 ft 432 kts 187°
2026-05-05 19:28 45.62250 11.65848 36988 ft 432 kts 187°
2026-05-05 19:29 45.58428 11.65588 36995 ft 431 kts 188°
2026-05-05 19:29 45.52430 11.65142 36994 ft 431 kts 188°
2026-05-05 19:30 45.48570 11.64856 36991 ft 431 kts 188°
2026-05-05 19:30 45.42608 11.64421 36999 ft 431 kts 188°
2026-05-05 19:31 45.36694 11.63994 37002 ft 431 kts 188°
2026-05-05 19:31 45.30700 11.63561 36988 ft 431 kts 188°
2026-05-05 19:32 45.24723 11.63129 36999 ft 431 kts 188°
2026-05-05 19:32 45.18758 11.62711 37004 ft 431 kts 188°
2026-05-05 19:33 45.14894 11.62472 37002 ft 432 kts 187°
2026-05-05 19:33 45.08856 11.62616 37008 ft 435 kts 184°
2026-05-05 19:34 45.02802 11.63006 37007 ft 435 kts 183°
2026-05-05 19:35 44.95964 11.63407 37010 ft 435 kts 184°
2026-05-05 19:35 44.89900 11.63706 37010 ft 435 kts 184°
2026-05-05 19:36 44.83875 11.63985 37002 ft 435 kts 184°
2026-05-05 19:36 44.77905 11.64263 36988 ft 435 kts 185°
2026-05-05 19:37 44.71888 11.64547 36996 ft 435 kts 185°
2026-05-05 19:37 44.65862 11.64832 36993 ft 435 kts 185°
2026-05-05 19:38 44.59801 11.65117 36992 ft 435 kts 185°
2026-05-05 19:38 44.53735 11.65546 36992 ft 438 kts 181°
2026-05-05 19:39 44.47654 11.66663 36991 ft 441 kts 178°
2026-05-05 19:39 44.41609 11.67982 36994 ft 442 kts 178°
2026-05-05 19:40 44.35540 11.69281 37005 ft 441 kts 179°
2026-05-05 19:40 44.29463 11.70534 36998 ft 441 kts 179°
2026-05-05 19:41 44.24413 11.71548 36994 ft 441 kts 179°
2026-05-05 19:41 44.17328 11.72956 36993 ft 442 kts 179°
2026-05-05 19:42 44.12256 11.73963 36988 ft 442 kts 179°
2026-05-05 19:42 44.06155 11.75177 36982 ft 442 kts 179°
2026-05-05 19:43 44.00051 11.76390 36965 ft 442 kts 179°
2026-05-05 19:43 43.93951 11.77609 36984 ft 443 kts 179°
2026-05-05 19:44 43.87882 11.78822 37011 ft 443 kts 179°
2026-05-05 19:44 43.81760 11.80027 37015 ft 444 kts 179°
2026-05-05 19:45 43.75689 11.81443 37015 ft 451 kts 172°
2026-05-05 19:45 43.69609 11.83805 37006 ft 452 kts 172°
2026-05-05 19:46 43.63497 11.85957 37013 ft 452 kts 173°
2026-05-05 19:46 43.59564 11.87257 37002 ft 452 kts 174°
2026-05-05 19:47 43.53476 11.89220 37012 ft 452 kts 174°
2026-05-05 19:47 43.47324 11.91180 37020 ft 452 kts 174°
2026-05-05 19:48 43.41223 11.93114 37013 ft 453 kts 174°
2026-05-05 19:48 43.35066 11.95055 37017 ft 453 kts 174°
2026-05-05 19:48 43.32016 11.96021 37005 ft 439 kts 174°
2026-05-05 19:49 43.29128 11.96971 36951 ft 415 kts 174°
2026-05-05 19:49 43.26369 11.97894 36398 ft 408 kts 174°
2026-05-05 19:49 43.23602 11.98798 35641 ft 406 kts 175°
2026-05-05 19:49 43.20890 11.99660 34911 ft 405 kts 176°
2026-05-05 19:50 43.18160 12.00514 34173 ft 399 kts 176°
2026-05-05 19:50 43.15475 12.01353 33376 ft 391 kts 176°
2026-05-05 19:50 43.12840 12.02180 32575 ft 385 kts 176°
2026-05-05 19:50 43.10240 12.02997 31798 ft 380 kts 175°
2026-05-05 19:51 43.07693 12.03800 31062 ft 374 kts 175°
2026-05-05 19:51 43.05172 12.04596 30310 ft 370 kts 175°
2026-05-05 19:51 43.02701 12.05376 29525 ft 369 kts 175°
2026-05-05 19:51 43.00205 12.06156 28698 ft 366 kts 174°
2026-05-05 19:52 42.97733 12.06923 27898 ft 361 kts 174°
2026-05-05 19:52 42.95341 12.07665 27121 ft 356 kts 174°
2026-05-05 19:52 42.92931 12.08413 26346 ft 351 kts 173°
2026-05-05 19:52 42.90545 12.09149 25454 ft 351 kts 173°
2026-05-05 19:53 42.88156 12.09877 24554 ft 351 kts 172°
2026-05-05 19:53 42.85833 12.10577 23710 ft 351 kts 171°
2026-05-05 19:53 42.83556 12.11260 22747 ft 350 kts 171°
2026-05-05 19:53 42.81180 12.11973 21747 ft 349 kts 171°
2026-05-05 19:54 42.78813 12.12684 20788 ft 347 kts 171°
2026-05-05 19:54 42.76466 12.13393 19859 ft 345 kts 171°
2026-05-05 19:54 42.74118 12.14105 18940 ft 343 kts 171°
2026-05-05 19:54 42.71799 12.14810 18018 ft 341 kts 171°
2026-05-05 19:55 42.69510 12.15642 17015 ft 340 kts 163°
2026-05-05 19:55 42.67408 12.17040 16071 ft 341 kts 154°
2026-05-05 19:55 42.65356 12.18710 15415 ft 334 kts 153°
2026-05-05 19:55 42.63457 12.20307 15215 ft 312 kts 152°
2026-05-05 19:56 42.61686 12.21829 15113 ft 292 kts 152°
2026-05-05 19:56 42.59991 12.23290 15046 ft 287 kts 153°
2026-05-05 19:56 42.58297 12.24720 15043 ft 286 kts 153°
2026-05-05 19:56 42.56594 12.26126 15038 ft 286 kts 154°
2026-05-05 19:57 42.54887 12.27514 15052 ft 285 kts 154°
2026-05-05 19:57 42.53204 12.28870 15054 ft 285 kts 154°
2026-05-05 19:57 42.51495 12.30240 15040 ft 285 kts 154°
2026-05-05 19:57 42.49779 12.31610 15013 ft 292 kts 154°
2026-05-05 19:58 42.47945 12.33040 14715 ft 317 kts 155°
2026-05-05 19:58 42.46630 12.34037 14414 ft 334 kts 155°
2026-05-05 19:58 42.45339 12.34997 14116 ft 349 kts 155°
2026-05-05 19:58 42.43191 12.36577 13648 ft 363 kts 155°
2026-05-05 19:59 42.40961 12.38225 13108 ft 365 kts 155°
2026-05-05 19:59 42.38745 12.39893 12594 ft 363 kts 154°
2026-05-05 19:59 42.37731 12.40668 12356 ft 361 kts 154°
2026-05-05 19:59 42.35772 12.42178 11885 ft 358 kts 152°
2026-05-05 20:00 42.33751 12.44149 11384 ft 358 kts 142°
2026-05-05 20:00 42.32002 12.46532 10895 ft 357 kts 132°
2026-05-05 20:00 42.30520 12.49217 10418 ft 354 kts 130°
2026-05-05 20:00 42.28686 12.51261 9919 ft 332 kts 159°
2026-05-05 20:01 42.26553 12.52020 9418 ft 307 kts 175°
2026-05-05 20:01 42.24442 12.52333 8896 ft 306 kts 180°
2026-05-05 20:01 42.22479 12.51565 8380 ft 303 kts 221°
2026-05-05 20:01 42.21549 12.49096 7892 ft 302 kts 261°
2026-05-05 20:02 42.21385 12.46275 7400 ft 305 kts 261°
2026-05-05 20:02 42.21037 12.43448 6913 ft 304 kts 257°
2026-05-05 20:02 42.20589 12.40742 6430 ft 286 kts 254°
2026-05-05 20:02 42.20088 12.38245 5931 ft 271 kts 251°
2026-05-05 20:03 42.19739 12.36651 5586 ft 262 kts 251°
2026-05-05 20:03 42.19385 12.35222 5296 ft 254 kts 248°
2026-05-05 20:03 42.19170 12.32946 5028 ft 248 kts 283°
2026-05-05 20:03 42.20283 12.31252 5004 ft 253 kts 338°
2026-05-05 20:04 42.22046 12.31143 5066 ft 260 kts
2026-05-05 20:04 42.23846 12.31331 5128 ft 263 kts 358°
2026-05-05 20:04 42.25672 12.31161 5131 ft 263 kts 352°
2026-05-05 20:04 42.27468 12.30676 5129 ft 262 kts 338°
2026-05-05 20:05 42.29008 12.29461 5128 ft 255 kts 313°
2026-05-05 20:05 42.30034 12.27566 5131 ft 248 kts 290°
2026-05-05 20:05 42.30724 12.25465 5130 ft 250 kts 291°
2026-05-05 20:05 42.31361 12.23318 5150 ft 244 kts 279°
2026-05-05 20:06 42.31437 12.21027 5064 ft 240 kts 257°
2026-05-05 20:06 42.30835 12.18992 4832 ft 237 kts 233°
2026-05-05 20:06 42.29646 12.17494 4622 ft 233 kts 209°
2026-05-05 20:06 42.28132 12.16827 4416 ft 227 kts 185°
2026-05-05 20:07 42.27081 12.16893 4271 ft 220 kts 173°
2026-05-05 20:07 42.26168 12.17111 4149 ft 214 kts 171°
2026-05-05 20:07 42.24697 12.17481 4005 ft 221 kts 172°
2026-05-05 20:07 42.23140 12.17765 4000 ft 228 kts 175°
2026-05-05 20:08 42.21556 12.17957 3990 ft 228 kts 176°
2026-05-05 20:08 42.21125 12.18001 3989 ft 228 kts 176°
2026-05-05 20:08 42.19537 12.18148 3987 ft 229 kts 177°
2026-05-05 20:08 42.17940 12.18285 4012 ft 230 kts 178°
2026-05-05 20:09 42.16340 12.18411 4006 ft 229 kts 178°
2026-05-05 20:09 42.14747 12.18442 4001 ft 229 kts 188°
2026-05-05 20:09 42.13352 12.17474 4014 ft 230 kts 217°
2026-05-05 20:09 42.12103 12.16256 4007 ft 214 kts 209°
2026-05-05 20:10 42.10825 12.15404 4000 ft 198 kts 201°
2026-05-05 20:10 42.09507 12.14883 4020 ft 197 kts 192°
2026-05-05 20:10 42.08160 12.14511 4011 ft 198 kts 191°
2026-05-05 20:10 42.06809 12.14177 4013 ft 196 kts 190°
2026-05-05 20:11 42.05464 12.13850 4026 ft 195 kts 190°
2026-05-05 20:11 42.04141 12.13554 4022 ft 195 kts 186°
2026-05-05 20:11 42.02809 12.13622 4023 ft 196 kts 172°
2026-05-05 20:11 42.01493 12.14076 4016 ft 187 kts 164°
2026-05-05 20:12 42.00321 12.14614 3936 ft 172 kts 163°
2026-05-05 20:12 41.99206 12.15117 3721 ft 165 kts 165°
2026-05-05 20:12 41.98131 12.15585 3476 ft 160 kts 164°
2026-05-05 20:12 41.97100 12.16022 3244 ft 154 kts 165°
2026-05-05 20:13 41.96099 12.16444 3029 ft 148 kts 166°
2026-05-05 20:13 41.95137 12.16857 2852 ft 148 kts 166°
2026-05-05 20:13 41.94113 12.17286 2643 ft 160 kts 166°
2026-05-05 20:13 41.93057 12.17729 2416 ft 154 kts 166°
2026-05-05 20:14 41.92079 12.18149 2209 ft 143 kts 165°
2026-05-05 20:14 41.91143 12.18548 2038 ft 139 kts 165°
2026-05-05 20:14 41.90235 12.18931 1825 ft 139 kts 164°
2026-05-05 20:14 41.89309 12.19320 1640 ft 139 kts 164°
2026-05-05 20:15 41.88384 12.19709 1448 ft 139 kts 163°
2026-05-05 20:15 41.87459 12.20103 1271 ft 139 kts 163°
2026-05-05 20:15 41.86554 12.20489 1077 ft 138 kts 162°
2026-05-05 20:15 41.85638 12.20878 877 ft 138 kts 160°
2026-05-05 20:16 41.84733 12.21309 644 ft 135 kts 163°
2026-05-05 20:16 41.83868 12.21670 450 ft 126 kts 162°
2026-05-05 20:16 41.83022 12.22025 360 ft 128 kts 161°
2026-05-05 20:16 41.82146 12.22392 173 ft 135 kts 161°
2026-05-05 20:17 41.81244 12.22769 31 ft 136 kts 162°
2026-05-05 20:17 41.80443 12.23102 17 ft 93 kts 161°
2026-05-05 20:17 41.79911 12.23328 20 ft 65 kts 163°
2026-05-05 20:17 41.79600 12.23472 12 ft 33 kts 152°
2026-05-05 20:18 41.79437 12.23642 13 ft 27 kts 130°
2026-05-05 20:18 41.79325 12.23813 17 ft 16 kts 119°
2026-05-05 20:18 41.79323 12.23921 20 ft 9 kts 75°
2026-05-05 20:18 41.79343 12.23992 21 ft 7 kts 62°
2026-05-05 20:19 41.79364 12.24013 24 ft 1 kts 14°
2026-05-05 20:19 41.79406 12.23992 21 ft 0 kts 344°
2026-05-05 20:19 41.79416 12.23990 23 ft 5 kts 351°
2026-05-05 20:19 41.79477 12.23970 21 ft 14 kts 345°
2026-05-05 20:20 41.79542 12.23944 18 ft 0 kts 356°
2026-05-05 20:20 41.79569 12.23978 19 ft 9 kts 75°
2026-05-05 20:20 41.79580 12.24051 18 ft 0 kts 72°